Location: Unspecified
(54.1780°N, 0.0000°E)
Time: 17:44:01
(UTC+00:00)

S-56A Canister/Altair - Pass Details

Date: 21 June 2019
Orbit: 633 x 2499 km, 38.9° (Epoch: 22 August)

Event Time Altitude Azimuth Distance (km) Brightness Sun altitude
Rises 16:09:16 0° 219° (SW) 4,857 12.2 35.2°
Reaches altitude 10° 16:14:11 10° 202° (SSW) 3,466 11.3 34.4°
Maximum altitude 16:19:04 17° 167° (SSE) 2,568 10.3 33.7°
Drops below altitude 10° 16:23:04 10° 129° (SE) 2,719 10.1 33.1°
Sets 16:26:15 0° 108° (ESE) 3,414 10.4 32.7°
